Regional Weather Roundup
Issued by NWS

Home | Current Version | Previous Version | Graphics & Text | Print | Product List | Glossary On
Versions: 1 2 3 4 5 6 7 8 9 10 11 12 13 14 15 16 17 18 19 20 21 22 23 24 25 26 27 28 29 30 31 32 33 34 35 36 37 38 39 40 41 42 43 44 45 46 47 48 49 50
000
ASUS43 KDMX 161806
RWRIA

WEATHER ROUNDUP FOR IOWA
NATIONAL WEATHER SERVICE DES MOINES IA
100 PM CDT WED AUG 16 2017

NOTE: "FAIR" INDICATES FEW OR NO CLOUDS BELOW 12,000 FEET WITH NO
SIGNIFICANT WEATHER AND/OR OBSTRUCTIONS TO VISIBILITY.

* - THESE STATIONS ARE NOT NWS STATIONS...THUS NOT UNDER NWS
QUALITY CONTROL.  THEY ALSO DO NOT REPORT WEATHER SUCH
AS PRECIPITATION OR FOG.

IAZ001>003-012>014-020>022-031>034-043>046-161900-
   NORTHWEST IOWA

CITY           SKY/WX    TMP DP  RH WIND       PRES   REMARKS
CARROLL *      CLOUDY    72  72 100 SE13G21   29.75F
CHEROKEE *     LGT RAIN  71  71 100 E7        29.74F
DENISON *      PTSUNNY   73  72  94 S13G23    29.76F
LE MARS *      CLOUDY    70  70 100 E5        29.74S
ORANGE CITY *  DRIZZLE   70  70 100 E8        29.75S
SHELDON *      PTSUNNY   68  68 100 E10       29.75F
SIOUX CITY     CLOUDY    74  73  97 SE6       29.73F
6HR MIN TEMP:  67; 6HR MAX TEMP:  74; 6HR PCP:  1.25;

SPENCER        HVY RAIN  69  68  96 N8        29.76F FOG
6HR MIN TEMP:  67; 6HR MAX TEMP:  70; 6HR PCP:  0.68;

STORM LAKE *   LGT RAIN  72  72 100 E9G17     29.77F
$$

IAZ055>058-069>071-079>083-090>094-161900-
   SOUTHWEST IOWA

CITY           SKY/WX    TMP DP  RH WIND       PRES   REMARKS
ATLANTIC *       N/A     75  72  88 S16       29.76F
AUDUBON *      CLOUDY    75  72  88 SE14G21   29.78S
CLARINDA *     CLOUDY    77  73  88 SW9G16    29.80F
COUNCIL BLFS * PTSUNNY   79  70  73 SW10G17   29.78F HX  81
CRESTON *      CLOUDY    77  72  83 S12G18    29.81S
HARLAN  *      CLOUDY    75  72  88 S16G23    29.80S
LAMONI         CLOUDY    76  72  87 SE10G21   29.78F
6HR MIN TEMP:  69; 6HR MAX TEMP:  76; 6HR PCP:  0.04;

RED OAK *      CLOUDY    77  72  83 S10G18    29.78R
SHENANDOAH *   CLOUDY    79  72  78 W13       29.79R HX  82
$$

IAZ047>049-059>061-072>074-084-161900-
   CENTRAL IOWA

CITY           SKY/WX    TMP DP  RH WIND       PRES   REMARKS
AMES           RAIN      75  75 100 SE9       29.80F FOG
6HR MIN TEMP:  67; 6HR MAX TEMP:  80; 6HR PCP:  0.05;

ANKENY *       CLOUDY    77  72  83 SE9       29.78F
BOONE *        LGT RAIN  73  72  94 SE8G14    29.79F
CHARITON *     LGT RAIN  75  72  88 SE13G18   29.79F
DES MOINES     CLOUDY    78  73  84 SE9       29.77F HX  81
6HR MIN TEMP:  71; 6HR MAX TEMP:  80; 6HR PCP:  0.01;

GRINNELL*      LGT RAIN  79  73  80 SE14G20   29.84F HX  82
KNOXVILLE *    CLOUDY    79  70  73 S14G22    29.79F HX  81
MARSHALLTOWN   CLOUDY    80  73  79 SE20      29.82F HX  84
6HR MIN TEMP:  66; 6HR MAX TEMP:  82;

NEWTON *       CLOUDY    79  73  83 S12G18    29.82F HX  82
PELLA *        CLOUDY    81  71  71 S12       29.84F HX  85
PERRY *        PTSUNNY   76  74  96 SE7       29.79F
$$

IAZ004>006-015-016-023>025-035-036-161900-
   NORTH CENTRAL IOWA

CITY           SKY/WX    TMP DP  RH WIND       PRES   REMARKS
ALGONA *       CLOUDY    77  73  88 SE14G21   29.80F
CLARION *      CLOUDY    75  75 100 SE12G18   29.81F
ESTHERVILLE    CLOUDY    70  69  97 E9        29.80S FOG
6HR MIN TEMP:  65; 6HR MAX TEMP:  70;

FORT DODGE *   CLOUDY    73  70  88 SE8       29.80F
MASON CITY     PTSUNNY   76  70  82 SE15      29.85F
6HR MIN TEMP:  64; 6HR MAX TEMP:  77;

WEBSTER CITY * CLOUDY    77  72  83 SE8G15    29.78F
IOWA FALLS *   CLOUDY    79  72  80 SE12G17   29.84F HX  82
$$

IAZ007>011-017>019-026>030-037>042-050>054-066-161900-
   NORTHEAST IOWA

CITY           SKY/WX    TMP DP  RH WIND       PRES   REMARKS
CEDAR RAPIDS   CLOUDY    81  71  71 SE16      29.85F HX  85
6HR MIN TEMP:  65; 6HR MAX TEMP:  82;

CHARLES CITY * CLOUDY    79  73  83 SE12      29.86F HX  82
CLINTON *      PTSUNNY   84  73  69 SE14      29.90F HX  90
DECORAH *      CLOUDY    79  70  73 SE8G15    29.89S HX  81
DUBUQUE        MOSUNNY   81  70  69 SE13      29.91F HX  84
6HR MIN TEMP:  63; 6HR MAX TEMP:  81;

MONTICELLO *   CLOUDY    81  72  74 SE9G21    29.88F HX  84
OELWEIN *      CLOUDY    81  73  78 SE15G22   29.87F HX  85
WATERLOO       MOSUNNY   83  70  64 SE16      29.83F HX  87
6HR MIN TEMP:  66; 6HR MAX TEMP:  83;

$$

IAZ064-065-067-068-078-161900-
   EAST CENTRAL IOWA

CITY           SKY/WX    TMP DP  RH WIND       PRES   REMARKS
DAVENPORT      CLOUDY    80  72  76 SE14      29.91F HX  84
6HR MIN TEMP:  66; 6HR MAX TEMP:  83; 6HR PCP: TRACE;

IOWA CITY      CLOUDY    83  72  69 SE14      29.87F HX  88
6HR MIN TEMP:  70; 6HR MAX TEMP:  84;

MT. PLEASANT * LGT RAIN  76  73  92 S9G18     29.88R
MUSCATINE *    CLOUDY    82  72  69 SE13G20   29.87F HX  87
QUAD CITIES    CLOUDY    81  71  71 SE10      29.89S HX  85
6HR MIN TEMP:  67; 6HR MAX TEMP:  85;

$$

IAZ062-063-075>077-085>089-095>099-161900-
   SOUTHEAST IOWA

CITY           SKY/WX    TMP DP  RH WIND       PRES   REMARKS
BURLINGTON     CLOUDY    78  74  87 S12       29.89F HX  81
6HR MIN TEMP:  70; 6HR MAX TEMP:  80; 6HR PCP: TRACE;

FAIRFIELD *    CLOUDY    81  72  74 S13G21    29.86S HX  84
FORT MADISON * LGT RAIN  79  73  83 S8        29.90R HX  82
KEOKUK *       CLOUDY    81  73  78 S9G17     29.88S HX  85
OSKALOOSA *    PTSUNNY   78  76  94 S9        29.85F HX  80
OTTUMWA        CLOUDY    79  73  82 S10       29.84F HX  82
6HR MIN TEMP:  69; 6HR MAX TEMP:  80; 6HR PCP: TRACE;

WASHINGTON *   CLOUDY    81  73  78 SE9G17    29.88R HX  85
$$

ABBREVIATIONS USED IN REMARKS
   TC - TEMPERATURES IN CELSIUS
  WCI - WIND CHILL INDEX
   HX - HEAT INDEX
  VSB - VISIBILITY
$$





USA.gov is the U.S. government's official web portal to all federal, state and local government web resources and services.